Regional Weather Roundup
Issued by NWS

Home | Current Version | Previous Version | Text Only | Print | Product List | Glossary Off
Versions: 1 2 3 4 5 6 7 8 9 10 11 12 13 14 15 16 17 18 19 20 21 22 23 24 25 26 27 28 29 30 31 32 33 34 35 36 37 38 39 40 41 42 43 44 45 46 47 48 49 50

427
ASUS43 KFSD 240710
RWRSD

WEATHER ROUNDUP FOR SOUTH DAKOTA
NATIONAL WEATHER SERVICE SIOUX FALLS SD
200 AM CDT SAT JUN 24 2017

NOTE: "FAIR" INDICATES FEW OR NO CLOUDS BELOW 12,000 FEET WITH NO
SIGNIFICANT WEATHER AND/OR OBSTRUCTIONS TO VISIBILITY.


SDZ001>005-009-010-012>017-240800-
NORTHWEST AND NORTH CENTRAL SOUTH DAKOTA

CITY           SKY/WX    TMP DP  RH WIND       PRES   REMARKS
BUFFALO          N/A     47  30  51 W8        30.15F
FAITH            N/A     47  33  58 W7        30.18S
MOBRIDGE       PTCLDY    45  38  76 CALM      30.10F
$$

SDZ012>016-024>037-041>051-057-063-072>074-240800-
SOUTHWEST AND SOUTH CENTRAL SOUTH DAKOTA

CITY           SKY/WX    TMP DP  RH WIND       PRES   REMARKS
RAPID CTY ARPT CLEAR     47  29  49 NW8       30.25R
PIERRE         CLEAR     48  39  71 N5        30.14F
CUSTER         CLEAR     43  24  47 NW6       30.32S
ELLSWORTH AFB  CLEAR     49  29  45 W6        30.24R
PHILIP         PTCLDY    45  32  60 W9        30.20R
PINE RIDGE     PTCLDY    42  37  82 CALM      30.27R
SPEARFISH      FAIR      48  30  49 W3        30.27S
WINNER         FAIR      49  34  56 W5        30.19R
$$

SDZ004>011-016>023-039-040-240800-
NORTHEAST SOUTH DAKOTA

CITY           SKY/WX    TMP DP  RH WIND       PRES   REMARKS
ABERDEEN       CLEAR     43  39  86 SW6       30.09F
WATERTOWN      CLEAR     52  41  66 NW9       30.08S
BROOKINGS      CLEAR     48  42  80 W6        30.10S
SISSETON         N/A     52  40  63 W10       30.04S
$$

SDZ017-020-022-023-036>040-048>070-240800-
SOUTHEAST SOUTH DAKOTA

CITY           SKY/WX    TMP DP  RH WIND       PRES   REMARKS
SIOUX FALLS    CLEAR     52  43  71 W8        30.11R
HURON          CLEAR     47  43  86 W7        30.12F
CHAMBERLAIN    CLEAR     52  41  68 CALM      30.17S
MITCHELL       CLEAR     51  41  68 W7        30.14S
YANKTON        CLEAR     53  40  61 W7        30.14
$$

ABBREVIATIONS USED IN REMARKS
   TC - TEMPERATURE IN CELSIUS
  WCI - WIND CHILL INDEX
   HX - HEAT INDEX
  VSB - VISIBILITY





USA.gov is the U.S. government's official web portal to all federal, state and local government web resources and services.